This is the latest recevied weather packets stored in our database for station/object VK6WB. If no packets are shown the sender has not sent any weather packets the latest 10 day(s).
| Time | Temp. | Humidity | Pressure | Rain* | Wind** | Luminosity | Snow |
|---|---|---|---|---|---|---|---|
| 1777938004 | 12.78° C | 10% | 1022.2 hPa | 0 mm | - | 65 W/m² | - |
| 1777937404 | 11.67° C | 10% | 1022 hPa | 0 mm | - | 65 W/m² | - |
| 1777936804 | 11.11° C | 10% | 1021.9 hPa | 0 mm | - | 65 W/m² | - |
| 1777936204 | 11.11° C | 10% | 1021.9 hPa | 0 mm | - | 65 W/m² | - |
| 1777935604 | 10.56° C | 10% | 1021.7 hPa | 0 mm | - | 65 W/m² | - |
| 1777935004 | 10.56° C | 10% | 1021.7 hPa | 0 mm | - | 65 W/m² | - |
| 1777934404 | 10.56° C | 10% | 1021.5 hPa | 0 mm | - | 65 W/m² | - |
| 1777933805 | 10.56° C | 10% | 1021.4 hPa | 0 mm | - | 65 W/m² | - |
| 1777933204 | 11.11° C | 10% | 1021.3 hPa | 0 mm | - | 65 W/m² | - |
| 1777932604 | 11.11° C | 10% | 1021.2 hPa | 0 mm | - | 65 W/m² | - |
| 1777932004 | 11.11° C | 10% | 1021.1 hPa | 0 mm | - | 65 W/m² | - |
| 1777931404 | 11.67° C | 10% | 1021.1 hPa | 0 mm | - | 65 W/m² | - |
| 1777930803 | 11.67° C | 10% | 1021 hPa | 0 mm | - | 116 W/m² | - |
| 1777930204 | 11.67° C | 10% | 1021 hPa | 0 mm | - | 220 W/m² | - |
| 1777929604 | 11.67° C | 12% | 1021 hPa | 0 mm | - | 323 W/m² | - |
| 1777929004 | 11.67° C | 14% | 1021 hPa | 0 mm | - | 478 W/m² | - |
| 1777928404 | 11.67° C | 16% | 1021 hPa | 0 mm | - | 530 W/m² | - |
| 1777927804 | 11.67° C | 18% | 1021 hPa | 0 mm | - | 582 W/m² | - |
| 1777927203 | 11.67° C | 20% | 1020.9 hPa | 0 mm | - | 582 W/m² | - |
| 1777926604 | 11.67° C | 20% | 1021 hPa | 0 mm | - | 582 W/m² | - |
| 1777926003 | 12.22° C | 21% | 1021.1 hPa | 0 mm | - | 582 W/m² | - |
| 1777925404 | 12.22° C | 23% | 1021.1 hPa | 0 mm | - | 582 W/m² | - |
| 1777924804 | 12.22° C | 22% | 1021.1 hPa | 0 mm | - | 634 W/m² | - |
| 1777924203 | 12.22° C | 22% | 1021.2 hPa | 0 mm | - | 634 W/m² | - |
| 1777923605 | 12.22° C | 24% | 1021.2 hPa | 0 mm | - | 634 W/m² | - |
* Rain latest hour (hover to see other rain measurements)
** Current wind speed in m/s (hover to see current wind gust speed)